Latest Weather Observations for Bedout Island

IDW60801

Issued at 1:35 pm WST Tuesday 21 October 2014 (issued every 30 minutes, with the page automatically refreshed every 10 minutes)

About weather observations | Map of weather stations | Latest weather observations for WA | Other Formats
Station Details ID: 004100 Name: BEDOUT ISLAND Lat: -19.59 Lon: 119.10 Height: 8.6 m
Data from the previous 72 hours. | See also: Recent months for locations in Western Australia
Date/Time
WST
Temp
°C
App
Temp
°C
Dew
Point
Rel
Hum
%
Delta-T
°C
Wind Press
QNH
hPa
Press
MSL
hPa
Rain
since 9 am
mm
Dir
 
Spd
km/h
Gust
km/h
Spd
kts
Gust
kts
21/01:30pm 30.8 31.3 22.7 62 5.5 W 24 28 13 15 1013.0 - -
21/01:00pm 30.8 31.2 23.2 64 5.2 WSW 26 30 14 16 1013.4 - -
21/12:30pm 30.6 30.6 23.0 64 5.2 WSW 28 32 15 17 1013.8 - -
21/12:00pm 30.1 29.9 22.8 65 5.0 WSW 28 32 15 17 1014.3 1014.2 -
21/11:30am 30.4 29.6 23.1 65 5.0 WSW 32 35 17 19 1014.5 - -
21/11:00am 29.5 28.1 22.2 65 4.9 WSW 33 37 18 20 1014.8 - -
21/10:30am 29.3 28.2 22.5 67 4.6 SW 32 35 17 19 1015.1 - -
21/10:00am 29.7 29.3 22.4 65 5.0 WSW 28 32 15 17 1015.8 - -
21/09:30am 29.5 29.1 21.7 63 5.2 WSW 26 28 14 15 1016.2 - -
21/09:00am 29.1 28.8 21.8 64 4.9 WSW 26 28 14 15 1016.2 1016.1 -
21/08:30am 28.3 27.7 21.3 65 4.7 WSW 26 28 14 15 1016.2 - -
21/08:00am 28.0 27.5 20.8 65 4.8 WSW 24 26 13 14 1016.2 - -
21/07:30am 27.5 27.2 21.1 68 4.2 WSW 24 28 13 15 1015.8 - -
21/07:00am 26.9 27.4 21.2 71 3.8 WSW 20 24 11 13 1015.6 - -
21/06:30am 25.8 26.0 20.6 73 3.4 WSW 20 24 11 13 1015.5 - -
21/06:00am 24.8 24.1 20.3 76 2.9 WSW 24 26 13 14 1015.1 1015.0 -
21/05:30am 24.2 23.7 20.7 81 2.3 WSW 24 28 13 15 1014.7 - -
21/05:00am 24.7 24.5 21.2 81 2.3 WSW 24 28 13 15 1014.5 - -
21/04:30am 24.6 23.6 20.5 78 2.7 WSW 26 30 14 16 1014.2 - -
21/04:00am 24.6 23.3 20.7 79 2.6 SW 28 32 15 17 1014.0 - -
21/03:30am 24.6 23.1 20.3 77 2.8 WSW 28 33 15 18 1013.8 - -
21/03:00am 25.0 22.2 20.3 75 3.1 WSW 35 39 19 21 1013.6 1013.5 -
21/02:30am 24.9 21.5 19.9 74 3.2 SW 37 41 20 22 1013.4 - -
21/02:00am 24.9 22.8 20.6 77 2.8 WSW 32 37 17 20 1013.4 - -
21/01:30am 24.8 22.5 20.5 77 2.8 WSW 33 37 18 20 1013.4 - -
21/01:00am 24.9 23.0 20.2 75 3.1 WSW 30 35 16 19 1013.8 - -
21/12:30am 25.0 22.4 19.4 71 3.6 WSW 32 35 17 19 1014.1 - -
21/12:00am 25.0 22.5 19.8 73 3.4 WSW 32 35 17 19 1014.2 1014.1 -
 
Date/Time
WST
Temp
°C
App
Temp
°C
Dew
Point
Rel
Hum
%
Delta-T
°C
Wind Press
QNH
hPa
Press
MSL
hPa
Rain
since 9 am
mm
Dir
 
Spd
km/h
Gust
km/h
Spd
kts
Gust
kts
20/11:30pm 25.1 23.2 20.1 74 3.2 W 30 33 16 18 1014.7 - -
20/11:00pm 25.2 24.4 20.9 77 2.8 W 26 30 14 16 1015.0 - -
20/10:30pm 24.9 23.6 20.6 77 2.8 W 28 32 15 17 1015.1 - -
20/10:00pm 25.0 23.8 20.9 78 2.7 W 28 32 15 17 1015.3 - -
20/09:30pm 25.1 23.6 21.0 78 2.7 W 30 32 16 17 1015.3 - -
20/09:00pm 25.3 24.0 21.4 79 2.6 W 30 35 16 19 1015.2 1015.1 -
20/08:30pm 25.0 23.5 20.9 78 2.7 W 30 33 16 18 1015.0 - -
20/08:00pm 25.0 23.8 20.9 78 2.7 W 28 32 15 17 1014.8 - -
20/07:30pm 25.2 24.2 21.3 79 2.6 WNW 28 32 15 17 1014.4 - -
20/07:00pm 25.2 24.2 21.3 79 2.6 WNW 28 30 15 16 1014.0 - -
20/06:30pm 25.2 24.5 21.1 78 2.7 WNW 26 30 14 16 1013.6 - -
20/06:00pm 25.7 24.9 20.9 75 3.2 WNW 26 30 14 16 1013.3 1013.2 -
20/05:30pm 26.4 25.6 20.9 72 3.6 WNW 26 28 14 15 1012.9 - -
20/05:00pm 27.3 26.7 21.3 69 4.0 WNW 26 30 14 16 1012.7 - -
20/04:30pm 27.5 26.4 21.1 68 4.2 W 28 32 15 17 1012.5 - -
20/04:00pm 28.2 27.1 21.0 65 4.8 W 28 32 15 17 1012.5 - -
20/03:30pm 28.7 27.7 21.2 64 5.0 W 28 32 15 17 1012.6 - -
20/03:00pm 29.8 29.2 21.2 60 5.7 W 26 28 14 15 1012.7 1012.6 -
20/02:30pm 29.5 28.9 20.6 58 5.9 W 24 28 13 15 1012.8 - -
20/02:00pm 30.2 29.6 20.4 55 6.5 W 24 26 13 14 1013.0 - -
20/01:30pm 30.1 30.3 20.6 56 6.3 W 20 24 11 13 1013.5 - -
20/01:00pm 30.2 29.5 19.6 53 6.9 WSW 22 26 12 14 1013.7 - -
20/12:30pm 29.9 29.2 20.2 56 6.4 WSW 24 28 13 15 1014.0 - -
20/12:00pm 29.9 29.4 19.9 55 6.6 WSW 22 26 12 14 1014.5 1014.4 -
20/11:30am 29.9 29.4 19.9 55 6.6 WSW 22 26 12 14 1014.9 - -
20/11:00am 29.6 29.9 19.6 55 6.5 W 17 20 9 11 1015.3 - -
20/10:30am 29.0 29.3 19.6 57 6.1 W 17 20 9 11 1015.5 - -
20/10:00am 29.6 29.5 19.6 55 6.5 W 19 20 10 11 1015.8 - -
20/09:30am 28.9 28.6 19.2 55 6.3 WSW 19 20 10 11 1015.9 - -
20/09:00am 28.6 28.4 19.8 59 5.7 WSW 20 22 11 12 1016.1 1016.0 -
20/08:30am 27.9 27.4 19.9 61 5.2 WSW 22 26 12 14 1016.1 - -
20/08:00am 27.5 27.1 19.3 61 5.3 WSW 20 24 11 13 1015.9 - -
20/07:30am 26.6 25.5 19.5 65 4.6 WSW 24 30 13 16 1015.5 - -
20/07:00am 25.7 24.3 19.6 69 3.9 WSW 26 30 14 16 1015.2 - -
20/06:30am 25.0 22.7 19.4 71 3.6 WSW 30 32 16 17 1014.8 - -
20/06:00am 24.4 21.8 18.6 70 3.7 WSW 30 35 16 19 1014.5 1014.4 -
20/05:30am 24.2 21.3 18.8 72 3.4 WSW 32 33 17 18 1014.2 - -
20/05:00am 24.0 21.2 19.1 74 3.1 WSW 32 37 17 20 1013.9 - -
20/04:30am 24.1 21.6 19.8 77 2.8 WSW 32 37 17 20 1013.5 - -
20/04:00am 24.1 21.2 20.0 78 2.6 WSW 35 39 19 21 1013.2 - -
20/03:30am 24.1 21.5 20.0 78 2.6 WSW 33 39 18 21 1013.0 - -
20/03:00am 24.1 21.7 20.0 78 2.7 WSW 32 39 17 21 1013.0 1012.9 -
20/02:30am 24.1 21.3 19.4 75 3.0 W 33 37 18 20 1012.8 - -
20/02:00am 24.4 21.7 19.7 75 3.0 W 33 39 18 21 1012.9 - -
20/01:30am 24.2 21.5 19.3 74 3.1 W 32 35 17 19 1013.1 - -
20/01:00am 24.4 22.2 19.5 74 3.1 W 30 33 16 18 1013.2 - -
20/12:30am 24.1 22.3 19.6 76 2.9 W 28 32 15 17 1013.5 - -
20/12:00am 24.3 22.8 20.2 78 2.7 W 28 32 15 17 1013.7 1013.6 -
 
Date/Time
WST
Temp
°C
App
Temp
°C
Dew
Point
Rel
Hum
%
Delta-T
°C
Wind Press
QNH
hPa
Press
MSL
hPa
Rain
since 9 am
mm
Dir
 
Spd
km/h
Gust
km/h
Spd
kts
Gust
kts
19/11:30pm 24.1 22.6 20.2 79 2.5 W 28 32 15 17 1014.0 - -
19/11:00pm 24.3 22.9 20.4 79 2.5 W 28 32 15 17 1014.3 - -
19/10:30pm 24.4 23.3 20.3 78 2.7 W 26 30 14 16 1014.4 - -
19/10:00pm 24.5 23.5 20.4 78 2.7 W 26 32 14 17 1014.5 - -
19/09:30pm 24.6 22.9 20.5 78 2.7 W 30 35 16 19 1014.3 - -
19/09:00pm 24.5 22.6 20.2 77 2.8 W 30 35 16 19 1014.1 1014.0 -
19/08:30pm 24.6 23.1 20.3 77 2.8 WNW 28 30 15 16 1013.8 - -
19/08:00pm 24.6 23.3 19.9 75 3.0 WNW 26 30 14 16 1013.5 - -
19/07:30pm 24.8 23.4 19.6 73 3.3 W 26 30 14 16 1013.2 - -
19/07:00pm 24.7 22.8 19.3 72 3.5 W 28 30 15 16 1012.8 - -
19/06:30pm 25.0 22.8 19.6 72 3.5 W 30 33 16 18 1012.4 - -
19/06:00pm 25.1 23.4 19.0 69 3.9 W 26 30 14 16 1012.2 1012.1 -
19/05:30pm 26.0 24.5 19.4 67 4.3 W 26 30 14 16 1012.0 - -
19/05:00pm 26.7 24.8 18.6 61 5.2 W 26 30 14 16 1011.9 - -
19/04:30pm 27.5 25.7 18.8 59 5.6 W 26 30 14 16 1011.9 - -
19/04:00pm 28.1 25.7 18.2 55 6.3 W 28 32 15 17 1011.9 - -
19/03:30pm 28.6 26.6 18.4 54 6.5 W 26 30 14 16 1012.0 - -
19/03:00pm 28.8 26.4 18.3 53 6.7 W 28 32 15 17 1012.0 1011.9 -
19/02:30pm 29.2 26.3 18.0 51 7.1 W 30 33 16 18 1012.2 - -
19/02:00pm 28.9 25.7 18.1 52 6.9 W 32 37 17 20 1012.4 - -
19/01:30pm 29.5 27.0 19.8 56 6.4 W 32 35 17 19 1012.7 - -
19/01:00pm 29.2 26.3 19.2 54 6.5 W 33 39 18 21 1013.1 - -
19/12:30pm 29.1 27.2 19.4 55 6.3 WSW 28 32 15 17 1013.4 - -
19/12:00pm 29.3 26.6 19.3 55 6.5 WSW 32 37 17 20 1013.7 1013.6 -
19/11:30am 28.4 24.7 19.1 57 6.0 WSW 37 43 20 23 1013.6 - -
19/11:00am 28.7 25.2 19.6 58 5.9 WSW 37 43 20 23 1014.1 - -
19/10:30am 28.1 24.6 19.6 60 5.5 WSW 37 43 20 23 1014.4 - -
19/10:00am 28.0 24.8 20.3 63 5.1 WSW 37 43 20 23 1014.6 - -
19/09:30am 27.7 24.9 20.3 64 4.9 WSW 35 43 19 23 1014.6 - -
19/09:00am 27.3 24.9 20.4 66 4.5 WSW 33 39 18 21 1014.8 1014.7 -
19/08:30am 26.7 24.0 19.6 65 4.6 WSW 33 39 18 21 1014.8 - -
19/08:00am 26.5 24.2 20.6 70 3.9 WSW 33 37 18 20 1014.7 - -
19/07:30am 25.9 23.9 20.7 73 3.4 WSW 32 37 17 20 1014.4 - -
19/07:00am 25.2 23.0 20.7 76 2.9 WSW 33 39 18 21 1013.9 - -
19/06:30am 24.6 22.3 20.5 78 2.7 WSW 33 41 18 22 1013.4 - -
19/06:00am 24.0 21.6 20.3 80 2.4 W 33 39 18 21 1013.0 1012.9 -
19/05:30am 23.8 22.1 20.5 82 2.1 W 30 33 16 18 1012.6 - -
19/05:00am 23.9 22.7 20.8 83 2.0 W 28 32 15 17 1012.3 - -
19/04:30am 24.0 22.5 20.9 83 2.0 W 30 35 16 19 1012.1 - -
19/04:00am 24.0 21.9 20.9 83 2.0 W 33 39 18 21 1012.0 - -
19/03:30am 23.9 22.0 21.0 84 1.9 W 32 35 17 19 1012.1 - -
19/03:00am 24.1 22.3 21.2 84 1.9 W 32 35 17 19 1012.0 1011.9 -
19/02:30am 24.1 22.2 21.0 83 2.0 W 32 37 17 20 1012.1 - -
19/02:00am 24.1 22.0 21.0 83 2.0 W 33 37 18 20 1012.2 - -
19/01:30am 24.2 22.6 21.5 85 1.8 W 32 37 17 20 1012.3 - -
19/01:00am 24.2 22.7 21.7 86 1.7 W 32 35 17 19 1012.5 - -
19/12:30am 24.3 22.5 21.6 85 1.8 W 33 39 18 21 1012.8 - -
19/12:00am 24.5 23.0 21.8 85 1.8 W 32 35 17 19 1013.1 1013.0 -
 
Date/Time
WST
Temp
°C
App
Temp
°C
Dew
Point
Rel
Hum
%
Delta-T
°C
Wind Press
QNH
hPa
Press
MSL
hPa
Rain
since 9 am
mm
Dir
 
Spd
km/h
Gust
km/h
Spd
kts
Gust
kts
18/11:30pm 24.6 23.1 21.7 84 1.9 W 32 35 17 19 1013.3 - -
18/11:00pm 24.6 23.2 21.9 85 1.8 W 32 35 17 19 1013.5 - -
18/10:30pm 24.6 23.2 21.9 85 1.8 W 32 35 17 19 1013.5 - -
18/10:00pm 24.9 23.7 22.2 85 1.8 W 32 35 17 19 1013.7 - -
18/09:30pm 24.8 23.5 22.1 85 1.8 W 32 35 17 19 1013.8 - -
18/09:00pm 25.0 23.8 22.3 85 1.8 W 32 37 17 20 1013.6 1013.5 -
18/08:30pm 24.9 23.5 22.0 84 1.9 W 32 35 17 19 1013.6 - -
18/08:00pm 25.0 23.8 22.3 85 1.8 W 32 35 17 19 1013.4 - -
18/07:30pm 25.2 23.8 22.3 84 1.9 W 33 35 18 19 1013.1 - -
18/07:00pm 25.4 24.3 22.5 84 2.0 WNW 32 35 17 19 1012.7 - -
18/06:30pm 25.6 24.4 22.3 82 2.2 WNW 32 35 17 19 1012.3 - -
18/06:00pm 25.7 25.1 22.0 80 2.5 WNW 28 32 15 17 1012.1 1012.0 -
18/05:30pm 26.5 25.5 21.9 76 3.1 WNW 30 35 16 19 1011.8 - -
18/05:00pm 27.0 26.2 21.7 73 3.5 WNW 28 32 15 17 1011.6 - -
18/04:30pm 27.8 27.1 21.8 70 4.0 WNW 28 30 15 16 1011.4 - -
18/04:00pm 28.5 28.6 22.5 70 4.1 NW 26 30 14 16 1011.2 - -
18/03:30pm 29.1 29.6 22.6 68 4.4 NW 24 28 13 15 1011.0 - -
18/03:00pm 29.1 29.3 22.1 66 4.7 NW 24 28 13 15 1011.1 1011.0 -
18/02:30pm 29.4 29.6 22.1 65 4.9 NW 24 28 13 15 1011.4 - -
18/02:00pm 29.5 30.4 22.0 64 5.1 NW 20 24 11 13 1011.7 - -

Other Formats:

Comma delimited format used in spreadsheet applications
http://www.bom.gov.au/fwo/IDW60801/IDW60801.94310.axf

JavaScript Object Notation format (JSON) in row-major order
http://www.bom.gov.au/fwo/IDW60801/IDW60801.94310.json